TimeCST,TemperatureF,Dew PointF,Humidity,Sea Level PressureIn,VisibilityMPH,Wind Direction,Wind SpeedMPH,Gust SpeedMPH,PrecipitationIn,Events,Conditions,WindDirDegrees,DateUTC
12:15 AM,44.6,19.4,37,30.18,10.0,South,3.5,-,N/A,,Clear,190,2012-12-14 06:15:00
12:35 AM,42.8,19.4,39,30.19,10.0,South,6.9,-,N/A,,Clear,180,2012-12-14 06:35:00
1:15 AM,41.0,19.4,42,30.17,10.0,SSW,4.6,-,N/A,,Clear,200,2012-12-14 07:15:00
1:55 AM,44.6,19.4,37,30.17,10.0,South,3.5,-,N/A,,Clear,170,2012-12-14 07:55:00
2:16 AM,42.8,19.4,39,30.18,10.0,South,9.2,-,N/A,,Clear,170,2012-12-14 08:16:00
2:35 AM,44.6,19.4,37,30.17,10.0,South,5.8,-,N/A,,Clear,180,2012-12-14 08:35:00
2:55 AM,42.8,19.4,39,30.17,10.0,Calm,Calm,-,N/A,,Clear,0,2012-12-14 08:55:00
4:15 AM,42.8,19.4,39,30.17,10.0,South,3.5,-,N/A,,Clear,180,2012-12-14 10:15:00
4:36 AM,39.2,19.4,45,30.16,10.0,South,3.5,-,N/A,,Clear,190,2012-12-14 10:36:00
4:55 AM,41.0,17.6,39,30.16,10.0,Calm,Calm,-,N/A,,Clear,0,2012-12-14 10:55:00
5:15 AM,42.8,19.4,39,30.16,10.0,Calm,Calm,-,N/A,,Clear,0,2012-12-14 11:15:00
5:35 AM,42.8,17.6,36,30.16,10.0,Calm,Calm,-,N/A,,Clear,0,2012-12-14 11:35:00
6:15 AM,39.2,17.6,42,30.17,10.0,South,3.5,-,N/A,,Clear,190,2012-12-14 12:15:00
6:35 AM,39.2,19.4,45,30.16,10.0,Calm,Calm,-,N/A,,Clear,0,2012-12-14 12:35:00
7:15 AM,39.2,21.2,49,30.16,10.0,Calm,Calm,-,N/A,,Clear,0,2012-12-14 13:15:00
7:35 AM,41.0,19.4,42,30.16,10.0,Calm,Calm,-,N/A,,Clear,0,2012-12-14 13:35:00
7:55 AM,41.0,21.2,45,30.17,10.0,Calm,Calm,-,N/A,,Clear,0,2012-12-14 13:55:00
8:16 AM,42.8,21.2,42,30.16,10.0,ESE,4.6,-,N/A,,Clear,120,2012-12-14 14:16:00
8:55 AM,46.4,24.8,43,30.15,10.0,SE,8.1,-,N/A,,Clear,140,2012-12-14 14:55:00
9:35 AM,50.0,24.8,37,30.16,10.0,South,10.4,-,N/A,,Clear,180,2012-12-14 15:35:00
9:55 AM,51.8,24.8,35,30.16,10.0,South,12.7,16.1,N/A,,Mostly Cloudy,170,2012-12-14 15:55:00
10:15 AM,51.8,24.8,35,30.16,10.0,South,8.1,-,N/A,,Overcast,170,2012-12-14 16:15:00
10:35 AM,51.8,24.8,35,30.16,10.0,South,13.8,17.3,N/A,,Overcast,190,2012-12-14 16:35:00
11:15 AM,53.6,24.8,33,30.15,10.0,South,11.5,-,N/A,,Overcast,190,2012-12-14 17:15:00
11:55 AM,51.8,24.8,35,30.14,10.0,South,10.4,-,N/A,,Overcast,190,2012-12-14 17:55:00
12:55 PM,53.6,24.8,33,30.09,10.0,South,8.1,-,N/A,,Overcast,170,2012-12-14 18:55:00
1:35 PM,53.6,24.8,33,30.06,10.0,South,13.8,17.3,N/A,,Overcast,170,2012-12-14 19:35:00
1:55 PM,53.6,24.8,33,30.04,10.0,South,12.7,19.6,N/A,,Overcast,170,2012-12-14 19:55:00
2:35 PM,53.6,24.8,33,30.01,10.0,SE,11.5,-,N/A,,Overcast,140,2012-12-14 20:35:00
3:15 PM,51.8,24.8,35,29.99,10.0,SE,9.2,18.4,N/A,,Overcast,140,2012-12-14 21:15:00
3:35 PM,50.0,28.4,43,29.98,10.0,SE,9.2,-,N/A,,Overcast,130,2012-12-14 21:35:00
3:55 PM,48.2,30.2,50,29.98,10.0,SE,10.4,-,N/A,,Mostly Cloudy,130,2012-12-14 21:55:00
4:35 PM,48.2,33.8,58,30.00,10.0,West,9.2,-,N/A,,Overcast,260,2012-12-14 22:35:00
4:55 PM,46.4,35.6,66,30.00,6.0,South,4.6,-,0.03,,Overcast,180,2012-12-14 22:55:00
5:15 PM,44.6,35.6,71,29.97,9.0,SE,8.1,-,0.03,,Mostly Cloudy,140,2012-12-14 23:15:00
5:36 PM,44.6,35.6,71,29.95,10.0,ESE,11.5,-,0.04,,Overcast,120,2012-12-14 23:36:00
6:15 PM,44.6,33.8,66,29.95,10.0,SSE,13.8,19.6,N/A,,Overcast,150,2012-12-15 00:15:00
6:36 PM,44.6,33.8,66,29.95,10.0,SSE,11.5,-,N/A,,Overcast,150,2012-12-15 00:36:00
6:55 PM,44.6,33.8,66,29.95,10.0,SSE,13.8,19.6,N/A,,Overcast,160,2012-12-15 00:55:00
7:15 PM,46.4,33.8,62,29.96,10.0,SSE,13.8,21.9,N/A,,Overcast,160,2012-12-15 01:15:00
7:55 PM,44.6,33.8,66,29.93,10.0,SE,19.6,26.5,0.04,,Overcast,140,2012-12-15 01:55:00
8:15 PM,44.6,35.6,71,29.92,10.0,SE,15.0,26.5,N/A,,Overcast,140,2012-12-15 02:15:00
8:35 PM,44.6,35.6,71,29.91,10.0,SE,16.1,21.9,N/A,,Mostly Cloudy,140,2012-12-15 02:35:00
9:15 PM,44.6,35.6,71,29.88,10.0,SE,12.7,21.9,N/A,,Overcast,130,2012-12-15 03:15:00
9:35 PM,44.6,35.6,71,29.87,10.0,SSE,15.0,19.6,N/A,,Overcast,150,2012-12-15 03:35:00
9:55 PM,46.4,37.4,71,29.86,10.0,SE,17.3,-,N/A,,Overcast,140,2012-12-15 03:55:00
10:15 PM,46.4,37.4,71,29.84,10.0,SE,19.6,23.0,N/A,,Overcast,140,2012-12-15 04:15:00
10:35 PM,48.2,37.4,66,29.84,10.0,SSE,19.6,28.8,N/A,,Overcast,150,2012-12-15 04:35:00
10:55 PM,48.2,39.2,71,29.83,10.0,SSE,19.6,27.6,N/A,,Overcast,150,2012-12-15 04:55:00
11:35 PM,48.2,41.0,76,29.82,10.0,SSE,17.3,25.3,N/A,,Overcast,150,2012-12-15 05:35:00
11:55 PM,50.0,41.0,71,29.81,10.0,SSE,18.4,27.6,N/A,,Overcast,150,2012-12-15 05:55:00